Time,TemperatureF,DewpointF,PressureIn,WindDirection,WindDirectionDegrees,WindSpeedMPH,WindSpeedGustMPH,Humidity,HourlyPrecipIn,Conditions,Clouds,dailyrainin,SoftwareType,DateUTC
2013-04-29 00:03:00,55.0,52.0,-100.00,SSE,150,1.0,7.0,89,0.00,,,-99.99,,2013-04-29 04:03:00,
2013-04-29 00:13:00,55.0,52.0,-100.00,South,190,1.0,4.0,90,0.00,,,-99.99,,2013-04-29 04:13:00,
2013-04-29 00:23:00,55.0,52.0,-100.00,SE,145,0.0,5.0,90,0.00,,,-99.99,,2013-04-29 04:23:00,
2013-04-29 00:33:00,54.0,52.0,-100.00,SSW,210,1.0,3.0,90,0.55,,,-99.99,,2013-04-29 04:33:00,
2013-04-29 00:43:00,54.0,52.0,-100.00,SSE,165,1.0,2.0,90,0.00,,,-99.99,,2013-04-29 04:43:00,
2013-04-29 00:52:00,54.0,51.0,-100.00,SE,145,2.0,4.0,90,0.00,,,-99.99,,2013-04-29 04:52:00,
2013-04-29 01:02:00,54.0,51.0,-100.00,SE,135,3.0,4.0,91,0.55,,,-99.99,,2013-04-29 05:02:00,
2013-04-29 01:12:00,54.0,51.0,-100.00,ESE,120,2.0,6.0,91,0.00,,,-99.99,,2013-04-29 05:12:00,
2013-04-29 01:22:00,54.0,51.0,-100.00,SE,125,3.0,4.0,91,1.10,,,-99.99,,2013-04-29 05:22:00,
2013-04-29 01:32:00,54.0,51.0,-100.00,SE,140,3.0,5.0,91,2.24,,,-99.99,,2013-04-29 05:32:00,
2013-04-29 01:42:00,54.0,51.0,-100.00,SE,140,3.0,6.0,91,2.24,,,-99.99,,2013-04-29 05:42:00,
2013-04-29 01:52:00,53.0,51.0,-100.00,SE,140,2.0,5.0,91,0.00,,,-99.99,,2013-04-29 05:52:00,
2013-04-29 02:02:00,53.0,51.0,-100.00,SSE,160,2.0,5.0,91,0.00,,,-99.99,,2013-04-29 06:02:00,
2013-04-29 02:11:00,53.0,51.0,-100.00,SSE,160,4.0,7.0,91,0.00,,,-99.99,,2013-04-29 06:11:00,
2013-04-29 02:21:00,53.0,51.0,-100.00,SSE,150,1.0,6.0,91,0.00,,,-99.99,,2013-04-29 06:21:00,
2013-04-29 02:32:00,53.0,51.0,-100.00,SSE,165,3.0,6.0,90,0.00,,,-99.99,,2013-04-29 06:32:00,
2013-04-29 02:42:00,53.0,50.0,-100.00,South,175,4.0,6.0,90,0.00,,,-99.99,,2013-04-29 06:42:00,
2013-04-29 02:52:00,53.0,50.0,-100.00,SSW,195,3.0,9.0,89,0.00,,,-99.99,,2013-04-29 06:52:00,
2013-04-29 03:01:00,53.0,50.0,-100.00,SSE,155,3.0,9.0,89,0.00,,,-99.99,,2013-04-29 07:01:00,
2013-04-29 03:11:00,53.0,50.0,-100.00,South,180,4.0,9.0,88,0.00,,,-99.99,,2013-04-29 07:11:00,
2013-04-29 03:21:00,53.0,50.0,-100.00,South,170,3.0,9.0,88,0.00,,,-99.99,,2013-04-29 07:21:00,
2013-04-29 03:32:00,53.0,50.0,-100.00,South,170,4.0,9.0,88,0.00,,,-99.99,,2013-04-29 07:32:00,
2013-04-29 03:42:00,53.0,50.0,-100.00,SSE,165,3.0,9.0,88,0.00,,,-99.99,,2013-04-29 07:42:00,
2013-04-29 03:52:00,53.0,50.0,-100.00,SSW,195,2.0,6.0,88,0.00,,,-99.99,,2013-04-29 07:52:00,
2013-04-29 04:03:00,53.0,50.0,-100.00,South,175,2.0,7.0,88,0.00,,,-99.99,,2013-04-29 08:03:00,
2013-04-29 04:11:00,53.0,50.0,-100.00,South,180,2.0,6.0,88,0.00,,,-99.99,,2013-04-29 08:11:00,
2013-04-29 04:21:00,53.0,50.0,-100.00,SSW,200,3.0,7.0,88,0.00,,,-99.99,,2013-04-29 08:21:00,
2013-04-29 04:32:00,53.0,50.0,-100.00,SW,220,2.0,6.0,88,0.00,,,-99.99,,2013-04-29 08:32:00,
2013-04-29 04:42:00,53.0,50.0,-100.00,South,185,1.0,4.0,88,0.00,,,-99.99,,2013-04-29 08:42:00,
2013-04-29 04:51:00,53.0,50.0,-100.00,South,170,2.0,6.0,88,0.00,,,-99.99,,2013-04-29 08:51:00,
2013-04-29 05:01:00,53.0,50.0,-100.00,SE,145,2.0,5.0,88,0.00,,,-99.99,,2013-04-29 09:01:00,
2013-04-29 05:12:00,53.0,50.0,-100.00,SSE,165,1.0,5.0,88,0.00,,,-99.99,,2013-04-29 09:12:00,
2013-04-29 05:21:00,53.0,50.0,-100.00,South,180,2.0,7.0,88,0.00,,,-99.99,,2013-04-29 09:21:00,
2013-04-29 05:33:00,53.0,50.0,-100.00,South,175,1.0,6.0,88,0.00,,,-99.99,,2013-04-29 09:33:00,
2013-04-29 05:42:00,53.0,50.0,-100.00,South,175,1.0,6.0,88,0.00,,,-99.99,,2013-04-29 09:42:00,
2013-04-29 05:52:00,53.0,50.0,-100.00,South,180,1.0,4.0,88,0.00,,,-99.99,,2013-04-29 09:52:00,
2013-04-29 06:02:00,53.0,50.0,-100.00,SSW,195,1.0,3.0,88,0.00,,,-99.99,,2013-04-29 10:02:00,
2013-04-29 06:12:00,53.0,50.0,-100.00,SSW,195,1.0,4.0,89,0.00,,,-99.99,,2013-04-29 10:12:00,
2013-04-29 06:23:00,53.0,50.0,-100.00,SSW,205,2.0,4.0,89,0.00,,,-99.99,,2013-04-29 10:23:00,
2013-04-29 06:32:00,53.0,50.0,-100.00,SSW,205,2.0,6.0,89,0.00,,,-99.99,,2013-04-29 10:32:00,
2013-04-29 06:42:00,53.0,50.0,-100.00,SSW,205,1.0,6.0,89,0.00,,,-99.99,,2013-04-29 10:42:00,
2013-04-29 06:52:00,53.0,50.0,-100.00,SSW,210,2.0,4.0,89,0.00,,,-99.99,,2013-04-29 10:52:00,
2013-04-29 07:03:00,53.0,50.0,-100.00,SSE,160,1.0,4.0,89,0.00,,,-99.99,,2013-04-29 11:03:00,
2013-04-29 07:12:00,53.0,50.0,-100.00,SSW,200,1.0,6.0,88,0.00,,,-99.99,,2013-04-29 11:12:00,
2013-04-29 07:21:00,53.0,50.0,-100.00,SW,225,2.0,4.0,88,0.00,,,-99.99,,2013-04-29 11:21:00,
2013-04-29 07:32:00,53.0,50.0,-100.00,WSW,250,2.0,6.0,88,0.00,,,-99.99,,2013-04-29 11:32:00,
2013-04-29 07:42:00,54.0,50.0,-100.00,SW,235,3.0,5.0,88,0.00,,,-99.99,,2013-04-29 11:42:00,
2013-04-29 07:52:00,54.0,50.0,-100.00,SSW,200,2.0,4.0,88,0.00,,,-99.99,,2013-04-29 11:52:00,
2013-04-29 08:01:00,54.0,50.0,-100.00,SSE,165,1.0,4.0,88,0.00,,,-99.99,,2013-04-29 12:01:00,
2013-04-29 08:12:00,54.0,50.0,-100.00,WSW,250,2.0,4.0,88,0.00,,,-99.99,,2013-04-29 12:12:00,
2013-04-29 08:22:00,54.0,50.0,-100.00,SW,220,2.0,4.0,89,0.00,,,-99.99,,2013-04-29 12:22:00,
2013-04-29 08:32:00,54.0,51.0,-100.00,SW,215,1.0,4.0,89,0.55,,,-99.99,,2013-04-29 12:32:00,
2013-04-29 08:42:00,53.0,51.0,-100.00,SSW,205,1.0,6.0,89,0.00,,,-99.99,,2013-04-29 12:42:00,
2013-04-29 08:52:00,54.0,51.0,-100.00,SSW,195,2.0,4.0,90,0.00,,,-99.99,,2013-04-29 12:52:00,
2013-04-29 09:01:00,54.0,51.0,-100.00,South,175,1.0,3.0,90,1.69,,,-99.99,,2013-04-29 13:01:00,
2013-04-29 09:11:00,54.0,51.0,-100.00,SSW,210,1.0,3.0,90,0.00,,,-99.99,,2013-04-29 13:11:00,
2013-04-29 09:21:00,54.0,51.0,-100.00,SSW,205,1.0,3.0,90,0.00,,,-99.99,,2013-04-29 13:21:00,
2013-04-29 09:32:00,54.0,51.0,-100.00,South,180,1.0,4.0,91,0.00,,,-99.99,,2013-04-29 13:32:00,
2013-04-29 09:42:00,54.0,52.0,-100.00,South,175,2.0,6.0,91,0.00,,,-99.99,,2013-04-29 13:42:00,
2013-04-29 09:52:00,55.0,52.0,-100.00,South,170,1.0,6.0,91,0.00,,,-99.99,,2013-04-29 13:52:00,
2013-04-29 10:02:00,55.0,53.0,-100.00,WSW,245,1.0,5.0,90,0.00,,,-99.99,,2013-04-29 14:02:00,
2013-04-29 10:11:00,55.0,52.0,-100.00,SW,215,3.0,6.0,89,0.00,,,-99.99,,2013-04-29 14:11:00,
2013-04-29 10:21:00,56.0,53.0,-100.00,SW,220,2.0,6.0,89,0.00,,,-99.99,,2013-04-29 14:21:00,
2013-04-29 10:32:00,56.0,52.0,-100.00,SSW,195,3.0,6.0,88,0.00,,,-99.99,,2013-04-29 14:32:00,
2013-04-29 10:42:00,56.0,52.0,-100.00,SW,215,2.0,6.0,88,0.00,,,-99.99,,2013-04-29 14:42:00,
2013-04-29 10:52:00,55.0,52.0,-100.00,SW,215,3.0,6.0,89,0.00,,,-99.99,,2013-04-29 14:52:00,
2013-04-29 11:01:00,56.0,53.0,-100.00,SW,220,4.0,6.0,89,0.00,,,-99.99,,2013-04-29 15:01:00,
2013-04-29 11:12:00,56.0,53.0,-100.00,SW,220,4.0,6.0,89,0.00,,,-99.99,,2013-04-29 15:12:00,
2013-04-29 11:21:00,56.0,53.0,-100.00,SSW,205,2.0,6.0,89,0.00,,,-99.99,,2013-04-29 15:21:00,
2013-04-29 11:33:00,56.0,53.0,-100.00,SSW,195,3.0,6.0,89,0.00,,,-99.99,,2013-04-29 15:33:00,
2013-04-29 11:42:00,56.0,53.0,-100.00,SSW,195,2.0,6.0,89,0.00,,,-99.99,,2013-04-29 15:42:00,
2013-04-29 11:53:00,56.0,53.0,-100.00,SW,215,4.0,6.0,89,0.00,,,-99.99,,2013-04-29 15:53:00,
2013-04-29 12:03:00,56.0,53.0,-100.00,SW,225,4.0,6.0,89,0.00,,,-99.99,,2013-04-29 16:03:00,
2013-04-29 12:12:00,57.0,54.0,-100.00,SW,230,2.0,5.0,89,0.00,,,-99.99,,2013-04-29 16:12:00,
2013-04-29 12:23:00,57.0,54.0,-100.00,South,190,1.0,7.0,89,0.00,,,-99.99,,2013-04-29 16:23:00,
2013-04-29 12:33:00,57.0,54.0,-100.00,SW,215,4.0,6.0,88,0.00,,,-99.99,,2013-04-29 16:33:00,
2013-04-29 12:42:00,57.0,53.0,-100.00,South,190,3.0,7.0,88,0.00,,,-99.99,,2013-04-29 16:42:00,
2013-04-29 12:52:00,57.0,54.0,-100.00,SSE,165,2.0,7.0,89,0.00,,,-99.99,,2013-04-29 16:52:00,
2013-04-29 13:02:00,58.0,55.0,-100.00,South,180,2.0,6.0,89,0.00,,,-99.99,,2013-04-29 17:02:00,
2013-04-29 13:12:00,58.0,55.0,-100.00,SW,220,3.0,6.0,88,0.00,,,-99.99,,2013-04-29 17:12:00,
2013-04-29 13:22:00,59.0,55.0,-100.00,SW,220,3.0,6.0,86,0.00,,,-99.99,,2013-04-29 17:22:00,
2013-04-29 13:32:00,60.0,55.0,-100.00,South,180,2.0,9.0,83,0.00,,,-99.99,,2013-04-29 17:32:00,
2013-04-29 13:42:00,60.0,54.0,-100.00,SW,215,4.0,7.0,78,0.00,,,-99.99,,2013-04-29 17:42:00,
2013-04-29 13:52:00,60.0,54.0,-100.00,SW,215,4.0,6.0,79,0.00,,,-99.99,,2013-04-29 17:52:00,
2013-04-29 14:01:00,61.0,54.0,-100.00,SW,215,3.0,7.0,76,0.00,,,-99.99,,2013-04-29 18:01:00,
2013-04-29 14:13:00,62.0,55.0,-100.00,SW,220,3.0,6.0,76,0.00,,,-99.99,,2013-04-29 18:13:00,
2013-04-29 14:22:00,63.0,54.0,-100.00,SSW,210,3.0,6.0,73,0.00,,,-99.99,,2013-04-29 18:22:00,
2013-04-29 14:32:00,64.0,54.0,-100.00,SSE,160,4.0,9.0,71,0.00,,,-99.99,,2013-04-29 18:32:00,
2013-04-29 14:42:00,63.0,53.0,-100.00,WSW,255,6.0,11.0,69,0.00,,,-99.99,,2013-04-29 18:42:00,
2013-04-29 14:51:00,63.0,53.0,-100.00,SE,145,4.0,7.0,71,0.00,,,-99.99,,2013-04-29 18:51:00,
2013-04-29 15:01:00,61.0,52.0,-100.00,SSW,205,6.0,11.0,71,0.00,,,-99.99,,2013-04-29 19:01:00,
2013-04-29 15:11:00,60.0,53.0,-100.00,West,265,7.0,12.0,78,0.00,,,-99.99,,2013-04-29 19:11:00,
2013-04-29 15:21:00,58.0,53.0,-100.00,West,265,8.0,12.0,83,0.00,,,-99.99,,2013-04-29 19:21:00,
2013-04-29 15:32:00,58.0,53.0,-100.00,West,265,6.0,12.0,85,0.00,,,-99.99,,2013-04-29 19:32:00,
2013-04-29 15:41:00,58.0,53.0,-100.00,SW,235,7.0,11.0,84,0.00,,,-99.99,,2013-04-29 19:41:00,
2013-04-29 15:52:00,59.0,54.0,-100.00,SW,235,4.0,11.0,83,0.00,,,-99.99,,2013-04-29 19:52:00,
2013-04-29 16:02:00,59.0,53.0,-100.00,SSW,205,6.0,10.0,79,0.00,,,-99.99,,2013-04-29 20:02:00,
2013-04-29 16:12:00,60.0,53.0,-100.00,SW,220,4.0,9.0,78,0.00,,,-99.99,,2013-04-29 20:12:00,
2013-04-29 16:21:00,60.0,54.0,-100.00,WSW,250,6.0,9.0,79,0.00,,,-99.99,,2013-04-29 20:21:00,
2013-04-29 16:32:00,60.0,52.0,-100.00,SW,235,7.0,9.0,75,0.00,,,-99.99,,2013-04-29 20:32:00,
2013-04-29 16:42:00,60.0,52.0,-100.00,SW,235,6.0,9.0,73,0.00,,,-99.99,,2013-04-29 20:42:00,
2013-04-29 16:52:00,60.0,52.0,-100.00,SW,215,4.0,12.0,75,0.00,,,-99.99,,2013-04-29 20:52:00,
2013-04-29 17:01:00,60.0,52.0,-100.00,SW,235,6.0,10.0,76,0.00,,,-99.99,,2013-04-29 21:01:00,
2013-04-29 17:11:00,60.0,52.0,-100.00,SW,230,6.0,9.0,75,0.00,,,-99.99,,2013-04-29 21:11:00,
2013-04-29 17:21:00,60.0,52.0,-100.00,WSW,240,4.0,7.0,74,0.00,,,-99.99,,2013-04-29 21:21:00,
2013-04-29 17:33:00,60.0,52.0,-100.00,WSW,250,4.0,8.0,75,0.00,,,-99.99,,2013-04-29 21:33:00,
2013-04-29 17:42:00,60.0,53.0,-100.00,SW,220,2.0,7.0,76,0.00,,,-99.99,,2013-04-29 21:42:00,
2013-04-29 17:53:00,60.0,53.0,-100.00,SW,220,4.0,7.0,77,0.00,,,-99.99,,2013-04-29 21:53:00,
2013-04-29 18:02:00,61.0,53.0,-100.00,WSW,240,4.0,7.0,76,0.00,,,-99.99,,2013-04-29 22:02:00,
2013-04-29 18:13:00,60.0,53.0,-100.00,SW,220,4.0,11.0,77,0.00,,,-99.99,,2013-04-29 22:13:00,
2013-04-29 18:23:00,61.0,53.0,-100.00,SW,230,6.0,7.0,76,0.00,,,-99.99,,2013-04-29 22:23:00,
2013-04-29 18:32:00,61.0,53.0,-100.00,WSW,240,5.0,9.0,74,0.00,,,-99.99,,2013-04-29 22:32:00,
2013-04-29 18:42:00,62.0,53.0,-100.00,SW,235,5.0,8.0,73,0.00,,,-99.99,,2013-04-29 22:42:00,
2013-04-29 18:52:00,62.0,53.0,-100.00,WSW,245,5.0,7.0,73,0.00,,,-99.99,,2013-04-29 22:52:00,
2013-04-29 19:02:00,61.0,53.0,-100.00,WSW,240,3.0,6.0,74,0.00,,,-99.99,,2013-04-29 23:02:00,
2013-04-29 19:11:00,61.0,53.0,-100.00,SW,235,2.0,4.0,73,0.00,,,-99.99,,2013-04-29 23:11:00,
2013-04-29 19:22:00,62.0,52.0,-100.00,SW,225,2.0,4.0,71,0.00,,,-99.99,,2013-04-29 23:22:00,
2013-04-29 19:32:00,61.0,52.0,-100.00,SW,225,2.0,6.0,72,0.00,,,-99.99,,2013-04-29 23:32:00,
2013-04-29 19:42:00,60.0,52.0,-100.00,SW,220,2.0,4.0,74,0.00,,,-99.99,,2013-04-29 23:42:00,
2013-04-29 19:52:00,60.0,52.0,-100.00,SSW,195,1.0,2.0,75,0.00,,,-99.99,,2013-04-29 23:52:00,
2013-04-29 20:01:00,60.0,52.0,-100.00,SSW,200,0.0,1.0,74,0.00,,,-99.99,,2013-04-30 00:01:00,
2013-04-29 20:11:00,60.0,52.0,-100.00,SSE,160,0.0,1.0,74,0.00,,,-99.99,,2013-04-30 00:11:00,
2013-04-29 20:21:00,60.0,52.0,-100.00,SSE,155,0.0,2.0,75,0.00,,,-99.99,,2013-04-30 00:21:00,
2013-04-29 20:32:00,59.0,52.0,-100.00,South,170,1.0,2.0,77,0.00,,,-99.99,,2013-04-30 00:32:00,
2013-04-29 20:42:00,59.0,52.0,-100.00,SSE,150,0.0,2.0,77,0.00,,,-99.99,,2013-04-30 00:42:00,
2013-04-29 20:51:00,59.0,52.0,-100.00,South,185,1.0,2.0,76,0.00,,,-99.99,,2013-04-30 00:51:00,
2013-04-29 21:02:00,59.0,52.0,-100.00,SSE,165,1.0,2.0,77,0.00,,,-99.99,,2013-04-30 01:02:00,
2013-04-29 21:11:00,59.0,52.0,-100.00,SE,130,1.0,2.0,77,0.00,,,-99.99,,2013-04-30 01:11:00,
2013-04-29 21:22:00,59.0,51.0,-100.00,SE,130,1.0,2.0,77,0.00,,,-99.99,,2013-04-30 01:22:00,
2013-04-29 21:32:00,58.0,51.0,-100.00,SE,135,1.0,2.0,79,0.00,,,-99.99,,2013-04-30 01:32:00,
2013-04-29 21:41:00,57.0,51.0,-100.00,SSE,150,1.0,3.0,80,0.00,,,-99.99,,2013-04-30 01:41:00,
2013-04-29 21:51:00,57.0,52.0,-100.00,SE,145,0.0,3.0,80,0.00,,,-99.99,,2013-04-30 01:51:00,
2013-04-29 22:01:00,57.0,52.0,-100.00,SSE,155,0.0,2.0,81,0.00,,,-99.99,,2013-04-30 02:01:00,
2013-04-29 22:11:00,57.0,52.0,-100.00,SE,135,0.0,1.0,81,0.00,,,-99.99,,2013-04-30 02:11:00,
2013-04-29 22:21:00,57.0,52.0,-100.00,SE,135,1.0,2.0,82,0.00,,,-99.99,,2013-04-30 02:21:00,
2013-04-29 22:31:00,56.0,51.0,-100.00,SE,135,1.0,2.0,82,0.00,,,-99.99,,2013-04-30 02:31:00,
2013-04-29 22:41:00,56.0,51.0,-100.00,SE,135,2.0,3.0,83,0.00,,,-99.99,,2013-04-30 02:41:00,
2013-04-29 22:51:00,56.0,51.0,-100.00,SE,145,2.0,3.0,84,0.00,,,-99.99,,2013-04-30 02:51:00,
2013-04-29 23:01:00,56.0,51.0,-100.00,SE,140,3.0,4.0,83,0.00,,,-99.99,,2013-04-30 03:01:00,
2013-04-29 23:11:00,56.0,51.0,-100.00,SE,140,3.0,4.0,84,0.00,,,-99.99,,2013-04-30 03:11:00,
2013-04-29 23:21:00,56.0,51.0,-100.00,SSE,150,2.0,4.0,85,0.00,,,-99.99,,2013-04-30 03:21:00,
2013-04-29 23:33:00,56.0,52.0,-100.00,SE,145,2.0,3.0,84,0.00,,,-99.99,,2013-04-30 03:33:00,
2013-04-29 23:42:00,56.0,51.0,-100.00,SSE,155,1.0,3.0,85,0.00,,,-99.99,,2013-04-30 03:42:00,
2013-04-29 23:52:00,56.0,52.0,-100.00,SSE,150,1.0,3.0,85,0.00,,,-99.99,,2013-04-30 03:52:00,